Location: Alfortville
(48.8058°N, 2.4204°E)
Time: 13:13:17
(UTC+00:00)

Meteor 1-19 Rocket - Pass Details

Date: 11 December 2023
Orbit: 806 x 928 km, 81.2° (Epoch: 01 March)

Event Time Altitude Azimuth Distance (km) Brightness Sun altitude
Rises 05:47:19 0° 348° (NNW) 3,584 7.2 -16.5°
Reaches altitude 10° 05:49:50 10° 350° (N) 2,630 6.5 -16.1°
Maximum altitude 05:55:52 77° 77° (ENE) 937 4.5 -15.1°
Drops below altitude 10° 06:01:43 10° 164° (SSE) 2,550 7.2 -14.2°
Sets 06:04:07 0° 166° (SSE) 3,467 7.9 -13.8°
